Simultaneous Nadir Overpasses (SNOs) Predictions

Prediction of SNOs between AQUA and METOP-B Satellite Orbit:

Table of predicted SNOs for the next 14.0 days since TLE Epoch: 6/20/2020
Index Date (AQUA) Time (AQUA) Lat,Lon (AQUA) SZA (AQUA ) Date (METOP-B) Time (METOP-B) Lat,Lon (METOP-B) SZA (METOP-B ) Distance(km) Time Diff (sec)
1 06/22/2020 08:30:34 73.48, 47.35 50.05 06/22/2020 08:29:24 73.41, 45.94 50.05 45.33 70
2 06/22/2020 09:20:07 -73.84,-145.79 129.57 06/22/2020 09:19:58 -73.82,-145.79 129.58 2.20 9
3 06/22/2020 10:09:35 73.89, 21.73 50.49 06/22/2020 10:10:36 73.89, 21.71 50.48 1.00 61
4 06/25/2020 04:04:53 73.70, 113.31 50.35 06/25/2020 04:03:40 73.68, 112.96 50.35 11.46 73
5 06/25/2020 04:54:22 -73.85, -79.37 129.50 06/25/2020 04:54:19 -73.84, -79.34 129.51 1.71 3
6 06/25/2020 05:43:50 73.91, 88.14 50.57 06/25/2020 05:44:57 73.90, 88.15 50.56 0.63 67
7 06/27/2020 23:39:08 73.77, 179.60 50.54 06/27/2020 23:37:58 73.79, 179.63 50.57 2.36 70
8 06/28/2020 00:28:36 -73.86, -12.96 129.36 06/28/2020 00:28:39 -73.85, -12.89 129.38 2.54 3
9 06/28/2020 01:18:04 73.92, 154.54 50.70 06/28/2020 01:19:17 73.92, 154.60 50.69 1.83 73
10 06/30/2020 19:13:23 73.79,-114.00 50.73 06/30/2020 19:12:19 73.80,-113.93 50.75 2.67 64
11 06/30/2020 20:02:50 -73.83, 53.55 129.23 06/30/2020 20:03:01 -73.82, 53.43 129.24 3.92 11
12 06/30/2020 20:52:23 74.15,-139.54 51.12 06/30/2020 20:53:33 74.18,-138.36 51.09 35.92 70
13 07/03/2020 14:47:37 73.76, -47.50 50.92 07/03/2020 14:46:41 73.76, -47.61 50.94 3.39 56
14 07/03/2020 15:37:05 -73.85, 119.94 128.98 07/03/2020 15:37:21 -73.88, 119.99 128.96 3.08 16




NCC Satellite Simultaneous Nadir Overpasses (SNOs) Prediction Service
